FLOCK 2E'-12

Last updated on Thu Mar 01 2018 00:15:07 GMT+0000 (Coordinated Universal Time)

1 41578U 98067KC 18059.51962195 .07518372 12317-4 10697-2 0 9992 2 41578 51.6066 119.7414 0005837 20.9767 339.3048 16.34000311 99896

Satellite not in orbit